Wind_Speed
25 25 24 24 26 26 25 24 23 21 20 20 17 15 17 15 12 12 16 11 16 15 26 28 30 27 22 21 9 9 7 4 4 6 4 4 4 4 6 7 9 5 4 1 1 4 4 6 7 5 5 6 6 6
24 24 25 25 26 27 25 24 22 21 21 21 19 18 16 16 14 15 17 12 16 22 21 32 28 29 33 33 30 9 6 2 5 4 3 1 4 2 3 4 3 3 4 5 5 2 2 4 9 5 8 3 5 9
24 24 25 25 26 26 24 24 21 21 22 21 19 16 15 14 12 12 15 15 18 18 25 23 20 22 22 23 21 23 21 20 10 9 4 2 6 3 3 2 5 3 9 4 9 11 7 12 2 14 21 26 19 18
23 24 24 25 26 24 24 24 24 23 22 21 18 17 17 15 13 14 15 15 15 11 6 15 22 31 18 23 27 38 32 21 14 12 4 3 2 6 1 3 2 4 8 6 5 13 26 15 20 10 31 17 9 23
24 24 23 25 26 25 25 25 25 25 25 24 22 19 17 16 16 17 18 18 16 10 5 19 38 7 18 19 19 24 30 27 14 9 5 2 5 3 3 2 2 2 2 2 3 7 6 11 20 21 31 28 20 24
23 23 23 24 25 26 28 30 30 29 27 26 24 20 17 15 14 13 5 2 4 8 7 4 17 16 19 8 16 32 24 15 17 8 2 3 5 5 2 2 2 10 6 8 5 8 24 26 36 27 32 26 27 32
22 23 25 26 27 29 33 34 33 30 26 24 21 17 15 13 14 8 6 5 12 8 5 5 6 10 28 9 13 14 18 16 9 2 1 2 4 5 2 2 7 10 7 12 6 7 21 33 22 31 31 32 33 35
22 24 27 29 31 33 35 36 34 30 25 21 18 17 16 16 16 11 8 7 4 6 5 3 4 7 15 8 2 13 9 8 3 2 1 1 8 3 2 4 6 7 5 11 21 14 14 18 21 23 29 32 36 33
23 26 29 31 33 33 37 38 35 31 26 15 15 17 15 6 3 5 9 16 12 6 3 3 3 3 9 5 1 5 8 2 2 1 2 3 1 2 6 10 1 8 13 12 22 18 14 17 24 20 22 28 31 31
24 27 31 34 34 33 38 37 36 31 18 15 12 4 3 5 11 19 5 1 3 4 5 3 6 3 5 4 3 6 1 3 2 3 4 3 2 8 19 6 11 16 16 16 10 12 13 19 19 17 13 14 16 21
25 28 30 33 31 34 39 37 33 30 14 11 6 4 13 15 6 1 3 3 3 3 6 8 9 5 7 2 2 2 2 2 2 0 2 3 4 8 16 10 17 21 22 18 19 18 17 19 18 15 16 17 16 15
27 27 29 32 28 35 38 34 29 22 12 11 14 12 10 5 4 3 2 1 2 3 4 3 6 8 1 4 2 4 2 4 2 2 3 3 4 16 13 12 16 12 11 10 7 9 10 10 10 11 10 12 13 14
25 27 28 30 26 34 34 26 21 18 16 7 6 5 6 4 3 4 4 1 3 3 6 9 2 5 5 6 3 2 1 4 1 4 3 2 6 6 15 12 6 7 6 12 13 9 16 13 9 12 8 11 15 18
26 26 27 25 28 34 25 17 16 16 9 5 6 8 5 5 3 6 8 6 14 15 21 23 3 3 4 1 1 3 3 3 4 4 4 2 11 3 11 18 22 14 14 21 26 30 22 22 23 15 16 13 15 19
26 25 25 19 30 25 16 9 14 14 6 5 5 3 4 13 24 28 23 20 22 21 14 3 3 1 2 3 6 6 5 5 6 3 2 12 17 16 13 10 17 19 22 28 25 19 19 17 18 23 17 19 18 16
25 23 14 24 24 10 11 10 12 6 5 5 3 10 19 18 18 27 26 26 36 32 11 15 6 5 8 4 6 7 4 5 3 2 13 16 23 20 14 13 14 16 20 16 19 17 18 17 16 16 12 13 12 13
20 11 20 21 17 4 13 16 7 4 3 6 9 21 14 19 19 25 26 31 27 31 10 5 7 8 3 5 5 5 3 3 8 11 12 16 22 22 18 22 15 15 20 19 25 16 25 26 19 23 19 19 17 12
19 16 14 16 11 9 12 11 7 6 8 9 9 21 27 31 29 28 29 34 25 24 16 7 7 7 4 3 2 1 2 6 11 16 11 11 11 10 10 16 22 20 19 18 23 22 21 21 26 24 21 22 23 20
14 14 13 12 13 7 5 6 6 5 13 15 20 22 25 27 32 32 32 32 33 26 25 9 6 6 6 9 17 20 21 15 10 12 12 18 19 18 13 15 18 18 18 19 23 23 24 21 21 24 19 18 19 20
12 13 13 14 13 7 4 5 7 5 7 11 13 19 23 25 28 31 32 30 24 26 17 7 7 16 22 26 25 20 16 17 15 20 20 19 15 15 16 16 11 14 19 21 20 18 19 22 19 24 19 18 19 15
14 10 10 11 8 8 5 6 6 3 5 7 11 14 12 19 26 29 28 24 25 15 13 20 23 28 29 31 32 34 23 13 17 21 18 13 9 7 8 8 12 14 18 18 21 22 21 19 17 21 17 14 20 14
8 7 8 8 4 3 2 4 4 6 2 2 7 10 8 11 13 14 16 17 11 14 20 24 21 21 30 30 28 31 31 24 20 17 24 19 19 20 28 23 18 20 21 21 20 21 21 18 15 19 16 14 15 14
9 6 5 3 2 2 3 3 2 3 1 2 1 2 3 4 6 11 6 13 16 24 26 23 19 24 23 21 26 25 25 28 21 22 20 21 22 21 25 22 23 28 27 25 21 21 21 17 15 18 24 17 15 17
5 4 2 3 3 4 4 4 4 4 3 1 1 2 3 3 5 6 5 10 18 22 26 26 25 23 21 21 20 23 24 23 25 20 22 16 19 21 20 15 17 25 23 19 17 18 20 18 15 12 23 21 12 12
3 2 2 4 2 4 4 2 5 4 4 2 5 4 5 3 2 3 3 12 18 18 20 21 18 18 15 18 21 22 21 19 21 24 22 12 13 16 20 21 18 18 21 16 17 17 19 17 18 17 18 19 17 15
3 4 7 13 20 9 4 4 4 3 3 5 4 5 4 1 3 3 3 10 14 17 19 18 15 16 19 22 20 19 20 17 14 24 16 12 17 19 20 20 18 18 18 13 15 16 15 18 17 15 15 14 15 13
7 11 8 2 3 4 6 6 10 9 6 6 5 4 3 4 4 3 7 9 13 15 15 14 15 16 18 19 17 17 16 15 13 14 19 16 14 14 18 18 16 15 12 12 13 12 15 15 13 12 13 15 16 13
5 14 6 5 4 6 4 9 7 7 8 11 5 6 3 3 2 4 5 10 10 13 15 13 14 16 17 17 16 15 15 14 16 11 10 17 20 17 14 14 13 12 15 14 11 9 13 12 12 12 14 14 14 13
6 7 7 7 5 3 6 10 10 8 10 8 3 3 3 2 1 5 9 13 17 10 14 16 15 15 15 15 15 16 12 13 15 20 21 17 19 18 15 14 13 14 12 12 13 9 13 14 12 11 11 13 13 12
12 11 7 8 8 4 9 7 9 8 9 13 11 9 6 4 2 5 11 14 16 16 16 15 14 13 13 14 14 14 12 11 13 16 14 11 13 11 13 13 13 14 11 14 14 12 11 11 12 12 13 13 14 14
4 6 6 5 5 9 11 9 8 8 8 8 6 6 5 2 1 1 8 12 12 13 13 14 14 11 11 11 11 10 8 9 13 21 18 7 7 7 11 12 10 13 11 14 12 13 12 11 12 12 12 13 13 14
3 7 9 2 6 7 6 9 8 7 5 2 4 3 2 1 2 0 5 10 10 10 11 12 13 11 10 9 9 9 6 6 16 16 22 14 11 8 10 12 10 12 11 12 10 11 10 11 11 12 13 13 13 14
5 4 5 4 10 5 8 4 1 3 4 3 3 6 4 3 4 5 5 10 6 6 9 10 9 9 10 10 10 8 5 9 12 10 17 16 14 14 10 11 13 13 12 9 11 11 11 12 11 12 12 13 13 14
Wind_Direction
347 350 351 350 348 347 345 344 344 344 343 340 331 319 318 316 311 285 285 278 258 254 265 272 276 274 281 273 267 284 347 341 254 220 188 179 224 265 302 324 317 316 341 284 12 150 239 350 60 167 205 132 123 88
351 350 350 349 350 350 346 345 343 337 334 334 330 326 319 313 305 297 288 286 276 262 266 285 266 252 257 259 268 259 211 151 288 295 293 88 229 193 338 313 14 328 24 302 352 86 108 72 153 32 299 330 76 81
350 349 349 349 348 347 347 347 345 343 340 337 333 334 336 328 320 306 295 293 287 287 291 274 279 299 284 261 258 247 251 241 235 309 312 262 254 147 202 336 308 347 17 341 336 1 345 240 281 76 75 51 52 79
349 349 347 346 346 344 345 347 346 343 340 340 336 332 331 329 324 316 306 301 284 286 272 289 310 293 258 257 252 247 243 247 269 299 284 279 305 333 55 267 340 21 308 323 310 355 348 73 41 128 112 159 8 77
348 347 350 349 347 345 345 344 342 339 337 332 326 323 322 318 317 316 318 300 288 273 290 295 310 310 314 293 249 224 223 232 236 228 230 276 324 287 240 215 175 307 313 339 59 330 281 356 30 80 87 93 90 74
352 350 348 346 344 344 343 338 332 327 325 321 318 314 312 309 311 329 313 347 45 314 298 307 303 315 313 309 210 199 206 215 229 259 4 336 274 291 319 317 256 330 345 229 151 92 51 46 49 50 76 78 75 69
348 349 348 346 345 344 344 342 338 333 328 325 316 312 312 308 297 267 241 280 315 302 262 293 306 300 318 284 189 180 198 211 223 48 261 273 281 310 269 231 340 330 82 77 58 26 38 51 30 25 61 68 63 64
348 347 345 343 341 340 341 341 337 334 327 320 317 312 305 300 296 281 294 264 328 245 258 274 277 310 353 334 258 185 180 170 110 155 69 322 309 330 306 1 305 329 41 81 79 85 119 115 99 49 60 69 66 61
344 342 341 341 341 341 343 341 339 337 332 317 316 313 297 296 270 278 296 292 286 219 271 252 285 295 322 295 319 260 148 79 83 51 318 259 278 13 322 283 195 58 73 92 105 106 96 96 96 84 66 72 69 63
338 338 337 337 338 340 346 344 339 339 339 347 333 302 278 317 301 301 306 281 217 223 234 256 217 253 277 196 255 14 83 168 176 209 146 24 17 313 358 78 102 99 85 80 89 84 85 80 81 78 80 71 58 62
333 334 334 335 335 341 347 347 340 341 3 349 327 297 300 316 302 278 278 260 207 246 220 245 258 228 258 218 324 145 291 130 82 220 84 39 4 324 21 95 104 107 110 96 82 90 84 82 86 93 82 75 72 64
328 330 331 332 333 343 348 346 344 354 343 332 317 311 329 335 301 274 234 350 292 271 245 241 274 320 188 193 90 339 293 128 85 68 65 52 346 18 30 81 93 91 82 74 89 96 87 73 69 68 65 70 64 65
327 329 329 329 333 346 345 343 352 347 349 349 332 318 343 358 326 285 334 307 271 247 257 273 19 264 344 38 115 44 338 56 149 57 58 2 309 20 28 51 64 26 38 92 78 87 79 83 58 48 61 60 64 65
325 329 327 327 338 342 341 341 348 357 354 353 335 342 13 336 299 275 316 278 272 260 264 280 230 181 188 200 45 36 46 33 55 47 44 321 335 51 92 72 55 59 53 77 93 82 85 73 61 64 69 68 65 72
323 328 325 330 336 341 336 330 337 350 356 345 6 330 316 328 334 333 357 351 332 310 274 273 190 118 87 31 18 9 49 51 26 38 19 1 41 39 67 102 75 71 70 58 71 80 78 66 70 62 65 67 67 66
327 333 327 326 335 356 6 347 330 326 338 356 293 340 355 7 346 346 355 360 1 13 45 43 24 40 38 36 22 22 37 30 341 13 31 55 57 52 63 69 81 88 70 66 64 80 69 69 71 54 67 58 64 59
335 331 331 340 353 40 21 1 339 330 37 21 348 359 41 360 347 354 359 11 19 29 18 36 35 38 19 32 24 12 28 27 54 54 51 58 78 68 96 51 75 67 80 89 63 83 67 67 68 52 60 53 49 60
345 350 1 4 27 54 32 7 2 13 16 24 356 5 20 35 6 12 29 26 29 27 31 45 40 30 44 34 31 56 68 43 58 49 48 59 62 80 80 74 76 81 60 80 66 64 57 54 48 38 38 40 45 51
6 20 38 36 22 20 20 12 9 324 40 19 8 30 34 34 37 36 38 39 46 52 53 43 41 27 39 40 63 61 77 90 84 115 80 75 73 66 71 78 73 71 64 61 59 58 54 51 44 37 36 34 38 25
37 50 56 42 29 6 7 5 342 12 25 2 36 40 42 43 48 45 42 42 45 45 45 49 52 47 44 42 46 51 65 71 65 64 62 67 75 69 63 72 68 64 65 60 56 49 44 33 34 27 29 36 26 25
24 39 53 26 20 27 25 356 359 33 335 9 48 50 55 44 49 48 46 45 49 48 44 48 60 53 47 44 42 36 43 40 45 44 26 29 49 71 68 74 70 67 59 53 56 57 50 37 21 22 21 22 23 34
5 48 53 7 0 6 28 332 320 322 343 71 68 67 61 47 43 28 35 36 39 48 47 45 54 54 42 33 30 35 39 43 38 40 32 25 34 38 48 49 63 71 62 52 49 48 41 31 23 12 20 19 11 31
13 35 17 331 317 295 289 287 281 284 336 107 64 73 47 43 34 30 40 32 32 41 46 46 46 41 39 32 24 25 31 26 36 35 28 31 39 51 61 57 57 49 40 37 41 38 32 28 26 29 25 30 37 34
20 27 335 302 307 284 258 228 232 219 206 266 175 88 71 86 89 75 42 29 34 35 35 31 26 24 23 27 39 34 27 18 19 25 21 24 50 58 56 57 47 45 34 27 27 25 16 11 3 8 24 16 11 27
13 29 330 287 259 267 281 298 1 343 343 313 130 140 197 305 40 64 37 29 32 27 22 14 13 12 22 29 27 33 35 23 13 13 19 40 40 48 50 49 33 39 29 25 24 19 18 14 9 6 9 11 12 6
22 29 25 16 357 334 10 343 317 346 4 9 90 128 140 140 75 55 47 349 2 0 357 353 348 10 36 29 26 36 41 28 21 15 35 47 52 48 40 40 34 21 22 19 16 12 13 8 4 4 4 8 9 16
32 13 355 331 195 271 298 296 320 25 16 358 39 41 84 61 52 17 337 342 344 351 356 360 7 24 30 23 27 39 32 23 15 17 45 61 55 50 42 33 28 16 9 11 12 16 12 6 9 13 16 25 26 26
113 195 216 223 258 234 24 21 23 23 7 338 30 34 54 57 40 341 330 341 342 342 348 24 29 32 31 25 29 20 12 4 353 11 45 40 34 32 31 19 13 14 10 8 16 3 19 14 8 11 11 14 15 14
215 204 186 215 119 33 57 57 45 29 2 11 58 67 92 91 65 353 353 344 340 0 22 14 23 22 22 16 21 20 20 31 28 22 16 12 12 14 13 12 10 7 7 6 355 16 32 27 30 27 17 14 9 8
172 145 99 72 70 86 80 95 90 86 75 89 106 116 113 127 83 12 14 11 11 13 13 5 12 24 23 15 18 26 23 48 43 22 16 5 0 358 7 9 10 9 7 3 7 13 11 13 10 11 11 8 5 5
5 26 114 123 94 114 133 129 124 121 110 98 84 96 116 134 168 10 13 16 15 17 15 4 9 24 23 15 17 9 19 31 18 9 12 16 4 13 14 4 2 5 5 3 6 10 16 13 12 11 10 10 7 5
312 47 356 44 141 132 152 165 178 171 155 161 138 127 148 89 52 342 352 359 11 19 16 10 9 27 21 19 12 5 359 341 360 19 23 33 30 32 31 6 11 7 10 8 12 13 17 16 18 14 10 8 7 3
351 14 352 23 122 205 211 166 149 124 146 166 100 86 85 64 38 30 47 16 30 31 27 17 11 11 6 8 13 5 336 4 7 13 22 26 17 3 3 10 27 19 15 14 17 21 19 18 14 11 8 7 6 3
Height
1518 1512 1507 1502 1497 1491 1486 1481 1476 1472 1467 1463 1459 1457 1454 1451 1449 1448 1446 1447 1446 1439 1431 1430 1426 1426 1423 1421 1420 1417 1416 1413 1405 1397 1396 1396 1393 1380 1373 1362 1361 1355 1342 1341 1336 1345 1354 1323 1325 1340 1337 1330 1332 1331
1516 1511 1506 1501 1495 1490 1485 1480 1475 1470 1466 1462 1458 1455 1452 1449 1447 1445 1443 1443 1441 1434 1425 1423 1420 1416 1416 1415 1416 1414 1414 1413 1412 1396 1386 1385 1384 1383 1378 1371 1349 1364 1369 1361 1343 1343 1332 1329 1330 1332 1336 1334 1331 1333
1515 1510 1505 1499 1494 1489 1484 1478 1473 1469 1464 1460 1456 1452 1449 1447 1445 1443 1440 1439 1436 1431 1420 1412 1405 1403 1403 1402 1405 1411 1406 1405 1408 1402 1395 1389 1383 1376 1377 1371 1368 1356 1360 1356 1348 1332 1333 1331 1332 1332 1335 1344 1344 1339
1514 1509 1503 1498 1493 1488 1483 1478 1472 1467 1463 1459 1454 1451 1448 1446 1443 1441 1438 1436 1434 1431 1422 1404 1400 1394 1394 1394 1395 1393 1394 1401 1405 1403 1399 1390 1385 1381 1375 1378 1374 1370 1368 1365 1356 1352 1344 1342 1343 1346 1338 1347 1356 1344
1513 1507 1502 1497 1493 1487 1482 1476 1471 1466 1461 1456 1452 1448 1446 1443 1440 1438 1434 1431 1430 1431 1422 1405 1392 1385 1386 1383 1384 1386 1391 1394 1398 1397 1392 1388 1384 1382 1376 1374 1374 1375 1373 1370 1370 1370 1365 1364 1354 1338 1345 1352 1356 1343
1512 1506 1501 1497 1491 1486 1480 1474 1468 1462 1458 1452 1446 1442 1440 1438 1436 1434 1430 1429 1428 1428 1424 1411 1395 1384 1379 1376 1377 1382 1387 1390 1391 1390 1388 1389 1387 1384 1375 1378 1371 1374 1369 1362 1367 1369 1363 1355 1351 1357 1353 1359 1354 1349
1512 1506 1501 1496 1490 1484 1478 1471 1464 1458 1452 1447 1442 1438 1436 1434 1433 1433 1430 1428 1427 1426 1424 1413 1399 1388 1380 1375 1378 1381 1384 1386 1387 1389 1390 1391 1387 1383 1377 1378 1370 1370 1366 1366 1362 1360 1358 1358 1365 1366 1356 1352 1355 1357
1512 1506 1501 1495 1489 1482 1475 1468 1460 1453 1448 1443 1439 1436 1432 1429 1428 1425 1424 1423 1424 1424 1422 1417 1403 1393 1386 1381 1378 1379 1381 1383 1387 1389 1390 1389 1386 1382 1376 1373 1373 1373 1368 1369 1367 1370 1378 1378 1365 1372 1371 1364 1359 1362
1511 1506 1500 1493 1487 1480 1472 1464 1456 1449 1442 1438 1436 1431 1428 1428 1426 1425 1423 1420 1419 1423 1418 1413 1405 1396 1390 1388 1386 1382 1381 1386 1389 1390 1391 1390 1386 1382 1382 1379 1376 1373 1372 1374 1376 1377 1382 1385 1374 1376 1376 1371 1371 1371
1509 1504 1498 1491 1485 1478 1471 1461 1453 1447 1440 1438 1432 1428 1428 1425 1424 1423 1420 1418 1417 1417 1416 1408 1401 1395 1393 1386 1384 1382 1380 1387 1385 1390 1389 1390 1390 1387 1383 1378 1376 1377 1377 1377 1383 1384 1381 1379 1379 1378 1383 1382 1381 1378
1506 1501 1496 1489 1482 1475 1468 1459 1451 1444 1439 1438 1435 1433 1427 1424 1422 1419 1417 1415 1413 1411 1406 1397 1391 1387 1389 1387 1384 1383 1382 1382 1388 1387 1387 1397 1394 1390 1384 1381 1381 1382 1383 1383 1382 1384 1386 1385 1383 1386 1388 1388 1388 1387
1503 1498 1492 1486 1481 1474 1466 1459 1451 1445 1442 1442 1438 1432 1428 1426 1421 1417 1413 1416 1416 1407 1396 1391 1387 1386 1381 1382 1383 1383 1379 1384 1388 1388 1394 1404 1403 1397 1391 1391 1390 1389 1389 1387 1387 1387 1388 1390 1391 1392 1392 1393 1390 1387
1499 1494 1489 1483 1479 1473 1466 1459 1454 1447 1443 1443 1440 1436 1435 1434 1429 1417 1413 1409 1411 1403 1393 1385 1384 1385 1383 1382 1383 1385 1383 1383 1387 1394 1408 1411 1408 1403 1398 1397 1395 1392 1390 1391 1392 1391 1394 1395 1394 1393 1395 1395 1393 1390
1495 1491 1486 1480 1476 1471 1466 1461 1456 1450 1445 1447 1445 1443 1439 1435 1430 1420 1412 1411 1404 1393 1385 1378 1383 1384 1384 1383 1384 1382 1385 1386 1392 1403 1411 1409 1405 1405 1406 1400 1399 1400 1398 1397 1396 1396 1398 1399 1399 1399 1399 1399 1397 1395
1491 1487 1482 1478 1474 1469 1465 1462 1458 1454 1450 1450 1449 1456 1441 1435 1424 1414 1406 1402 1391 1382 1377 1376 1380 1380 1382 1382 1389 1391 1396 1405 1411 1414 1413 1412 1412 1408 1408 1407 1407 1406 1405 1404 1405 1404 1404 1404 1405 1404 1404 1402 1404 1404
1487 1483 1479 1477 1473 1469 1466 1463 1459 1456 1455 1455 1452 1448 1442 1439 1429 1418 1409 1403 1395 1387 1380 1383 1387 1392 1400 1407 1409 1414 1415 1421 1422 1419 1418 1417 1417 1415 1412 1412 1413 1414 1413 1411 1414 1413 1412 1412 1412 1412 1412 1414 1412 1409
1485 1482 1479 1475 1470 1469 1467 1464 1460 1458 1457 1460 1457 1452 1449 1444 1438 1428 1419 1412 1406 1398 1396 1398 1406 1412 1417 1421 1422 1425 1425 1426 1426 1424 1423 1421 1423 1423 1419 1419 1418 1418 1420 1422 1419 1418 1421 1420 1419 1419 1419 1417 1414 1413
1483 1481 1478 1474 1471 1469 1468 1467 1466 1464 1462 1462 1459 1454 1452 1448 1442 1435 1429 1422 1415 1414 1411 1414 1418 1422 1425 1427 1430 1432 1432 1432 1431 1431 1427 1428 1429 1430 1430 1428 1426 1427 1426 1426 1426 1425 1425 1424 1424 1423 1421 1418 1416 1416
1483 1481 1479 1476 1473 1471 1471 1471 1470 1468 1467 1466 1464 1460 1457 1455 1450 1444 1439 1436 1431 1429 1423 1425 1432 1437 1438 1440 1440 1440 1439 1437 1436 1436 1435 1434 1433 1433 1433 1433 1434 1433 1431 1431 1432 1431 1431 1430 1428 1427 1425 1423 1422 1422
1486 1483 1481 1479 1477 1474 1474 1474 1473 1471 1472 1472 1468 1465 1464 1462 1459 1454 1452 1448 1444 1440 1441 1448 1454 1456 1453 1452 1449 1447 1445 1444 1442 1439 1439 1438 1439 1438 1437 1437 1437 1436 1435 1434 1434 1432 1428 1429 1428 1427 1428 1426 1425 1424
1486 1485 1484 1482 1480 1480 1480 1479 1477 1477 1475 1474 1471 1470 1470 1468 1465 1463 1461 1461 1456 1458 1461 1462 1462 1461 1459 1457 1455 1452 1450 1449 1447 1445 1444 1443 1442 1439 1437 1437 1436 1435 1435 1434 1433 1432 1433 1434 1434 1433 1432 1429 1429 1426
1487 1486 1483 1484 1483 1482 1482 1480 1480 1479 1478 1476 1475 1475 1475 1474 1474 1473 1473 1468 1469 1471 1471 1469 1468 1467 1464 1462 1460 1457 1455 1453 1452 1449 1448 1446 1444 1442 1440 1438 1438 1438 1439 1439 1438 1438 1438 1438 1438 1436 1433 1432 1430 1427
1486 1486 1486 1485 1484 1482 1481 1479 1479 1478 1477 1476 1476 1477 1478 1479 1480 1480 1479 1479 1478 1477 1475 1474 1473 1471 1470 1468 1465 1462 1459 1457 1456 1454 1453 1452 1449 1446 1444 1444 1443 1442 1442 1443 1443 1443 1442 1439 1437 1436 1435 1433 1431 1430
1488 1488 1489 1488 1486 1483 1480 1477 1475 1474 1473 1472 1474 1475 1478 1482 1483 1484 1487 1487 1486 1483 1480 1479 1477 1475 1473 1471 1469 1467 1465 1462 1461 1459 1457 1455 1454 1452 1450 1450 1448 1448 1448 1447 1446 1445 1444 1442 1439 1438 1437 1435 1432 1432
1492 1492 1490 1486 1485 1483 1479 1476 1475 1473 1471 1469 1472 1480 1482 1483 1483 1489 1491 1493 1490 1488 1487 1485 1481 1478 1476 1475 1473 1471 1469 1467 1465 1463 1461 1458 1457 1456 1456 1454 1453 1454 1454 1452 1451 1450 1447 1444 1442 1440 1439 1438 1437 1435
1495 1493 1494 1492 1493 1486 1482 1483 1478 1475 1472 1471 1476 1480 1482 1483 1487 1494 1496 1496 1493 1491 1489 1486 1482 1480 1479 1477 1476 1474 1473 1470 1470 1468 1466 1462 1461 1460 1459 1458 1457 1457 1457 1455 1453 1451 1449 1447 1446 1444 1442 1440 1439 1437
1500 1505 1501 1498 1494 1494 1489 1484 1478 1475 1474 1474 1474 1477 1480 1490 1496 1499 1498 1496 1494 1492 1489 1487 1485 1482 1481 1480 1479 1476 1474 1472 1473 1472 1470 1465 1464 1463 1463 1462 1461 1461 1459 1457 1455 1453 1452 1450 1448 1446 1445 1442 1440 1438
1501 1501 1500 1498 1496 1493 1489 1485 1482 1483 1484 1482 1481 1486 1492 1498 1502 1501 1498 1496 1495 1492 1490 1488 1486 1483 1482 1482 1480 1477 1475 1474 1473 1470 1469 1468 1467 1466 1466 1465 1463 1461 1459 1457 1456 1453 1452 1450 1449 1447 1445 1444 1441 1440
1496 1495 1496 1492 1491 1490 1489 1490 1492 1494 1493 1489 1490 1495 1500 1501 1501 1500 1498 1496 1493 1491 1490 1488 1486 1484 1484 1483 1481 1480 1477 1475 1475 1472 1471 1470 1468 1468 1466 1465 1463 1461 1459 1458 1455 1454 1453 1451 1449 1448 1446 1444 1442 1441
1489 1489 1489 1489 1489 1490 1493 1493 1495 1496 1495 1494 1495 1499 1500 1500 1500 1499 1498 1496 1494 1492 1491 1490 1487 1485 1485 1485 1484 1483 1479 1478 1477 1476 1475 1473 1472 1470 1468 1466 1464 1462 1460 1458 1456 1454 1452 1451 1449 1448 1446 1445 1443 1441
1484 1484 1485 1486 1488 1489 1491 1493 1495 1495 1495 1496 1496 1497 1498 1499 1499 1499 1498 1496 1494 1493 1492 1491 1489 1486 1486 1486 1485 1484 1483 1480 1478 1477 1474 1473 1471 1470 1468 1466 1464 1462 1460 1459 1457 1454 1453 1452 1450 1449 1447 1445 1443 1442
1484 1484 1484 1482 1487 1489 1490 1491 1491 1492 1493 1494 1494 1497 1498 1498 1498 1498 1497 1496 1495 1494 1493 1492 1490 1488 1487 1486 1485 1484 1481 1480 1479 1477 1475 1473 1471 1470 1469 1467 1464 1462 1460 1459 1457 1456 1454 1453 1451 1449 1448 1446 1444 1442
1484 1483 1483 1482 1484 1486 1487 1489 1490 1491 1491 1492 1494 1495 1496 1496 1497 1498 1497 1494 1494 1493 1493 1492 1491 1489 1487 1486 1485 1484 1482 1481 1479 1478 1476 1474 1473 1471 1469 1467 1465 1463 1461 1460 1458 1456 1455 1453 1451 1450 1448 1446 1444 1442